sat.trackr.live / text

‹ back to catalog

HAIYANG-1B

NORAD 31113 · 2007-010A

PAYLOAD ACTIVE UNKNOWN

§ Identity

Operator
Country
PRC
Launch date
2007-04-11
Launch site
TAISC
Launch vehicle
Mass (kg)
RCS (m²)
1.36

Purposes: earth_obs

External: N2YO · Heavens-Above · Gunter

§ Orbital elements

Epoch: 2026-05-25T05:03:45.576288Z

Period
100.63 min
Inclination
98.3486°
Eccentricity
0.0012204
Mean motion
14.31020453 rev/d
Perigee alt
779.6 km
Apogee alt
797.1 km
Semi-major
7,166.5 km
B*
4.9427e-5
RAAN
127.9488°
Arg perigee
269.9762°
Mean anomaly
90.0023°
Rev number
99,734

§ Raw data

HAIYANG-1B1 31113U 07010A   26145.21094417  .00000088  00000+0  49427-4 0  99982 31113  98.3486 127.9488 0012204 269.9762  90.0023 14.31020453997347

JSON: /api/v1/satellites/31113 · /tle

For live sub-satellite position, see the globe view (requires WebGL).

§ Visibility from observer

Set your observer location to see the next 7 days of passes ≥ 10°. The values pass through the URL so the page stays shareable.

No JS? Fill the form by hand. The geolocation button needs JavaScript.

§ Radio — SatNOGS DB

ModeDescriptionDownlinkUplink
BPSK S-Band 9k6 BPSK Experimental 2.274 GHz
BPSK S-Band DBPSK 2.274 GHz

2 transmitters · refreshed weekly from db.satnogs.org